TimePST,TemperatureF,Dew PointF,Humidity,Sea Level PressureIn,VisibilityMPH,Wind Direction,Wind SpeedMPH,Gust SpeedMPH,PrecipitationIn,Events,Conditions,WindDirDegrees,DateUTC
12:54 AM,57.9,50.0,75,30.20,10.0,Calm,Calm,-,N/A,,Overcast,0,2012-11-29 08:54:00
1:54 AM,59.0,50.0,72,30.20,10.0,Calm,Calm,-,N/A,,Overcast,0,2012-11-29 09:54:00
2:54 AM,59.0,50.0,72,30.19,10.0,Calm,Calm,-,N/A,,Overcast,0,2012-11-29 10:54:00
3:54 AM,59.0,50.0,72,30.18,10.0,Calm,Calm,-,N/A,,Overcast,0,2012-11-29 11:54:00
4:47 AM,59.0,51.8,77,30.18,10.0,ENE,3.5,-,0.00,,Overcast,60,2012-11-29 12:47:00
4:54 AM,59.0,52.0,78,30.18,10.0,Calm,Calm,-,0.00,,Overcast,0,2012-11-29 12:54:00
5:54 AM,59.0,53.1,81,30.19,5.0,Calm,Calm,-,0.00,,Haze,0,2012-11-29 13:54:00
6:54 AM,59.0,54.0,83,30.21,5.0,NE,4.6,-,0.00,Rain,Light Rain,40,2012-11-29 14:54:00
7:25 AM,59.0,53.6,82,30.22,3.0,NE,3.5,-,0.03,Rain,Light Rain,50,2012-11-29 15:25:00
7:40 AM,59.0,53.6,82,30.22,4.0,NE,4.6,-,0.03,,Haze,50,2012-11-29 15:40:00
7:54 AM,59.0,55.0,87,30.22,4.0,NE,3.5,-,0.03,,Overcast,50,2012-11-29 15:54:00
8:54 AM,61.0,55.9,83,30.24,3.0,NNE,4.6,-,0.00,Rain,Light Rain,30,2012-11-29 16:54:00
9:38 AM,62.6,57.2,82,30.24,2.5,NNE,5.8,-,0.01,,Overcast,30,2012-11-29 17:38:00
9:54 AM,62.1,57.0,84,30.24,3.0,North,4.6,-,0.01,,Overcast,10,2012-11-29 17:54:00
10:32 AM,64.4,57.2,77,30.23,4.0,North,3.5,-,N/A,,Overcast,10,2012-11-29 18:32:00
10:54 AM,64.0,57.9,80,30.22,3.0,NE,3.5,-,N/A,,Overcast,50,2012-11-29 18:54:00
11:54 AM,66.9,59.0,76,30.18,3.0,ENE,4.6,-,N/A,,Mostly Cloudy,70,2012-11-29 19:54:00
12:50 PM,68.0,59.0,73,30.16,4.0,Calm,Calm,-,N/A,,Mostly Cloudy,0,2012-11-29 20:50:00
12:54 PM,68.0,59.0,73,30.16,4.0,WSW,3.5,-,N/A,,Mostly Cloudy,240,2012-11-29 20:54:00
1:54 PM,64.9,57.9,78,30.16,4.0,SW,6.9,-,N/A,,Mostly Cloudy,230,2012-11-29 21:54:00
2:54 PM,64.0,59.0,84,30.16,3.0,Calm,Calm,-,0.00,,Drizzle,0,2012-11-29 22:54:00
3:15 PM,64.4,59.0,83,30.16,2.0,SSW,3.5,-,0.00,Rain,Light Rain,200,2012-11-29 23:15:00
3:40 PM,64.4,59.0,83,30.15,4.0,Calm,Calm,-,0.00,,Mostly Cloudy,0,2012-11-29 23:40:00
3:54 PM,64.0,59.0,84,30.15,4.0,South,3.5,-,0.00,,Mostly Cloudy,170,2012-11-29 23:54:00
4:54 PM,64.0,59.0,84,30.15,3.0,Calm,Calm,-,N/A,,Overcast,0,2012-11-30 00:54:00
5:54 PM,64.0,59.0,84,30.15,4.0,Calm,Calm,-,N/A,,Overcast,0,2012-11-30 01:54:00
6:54 PM,63.0,57.9,84,30.16,4.0,Calm,Calm,-,N/A,,Overcast,0,2012-11-30 02:54:00
7:54 PM,60.1,55.0,83,30.17,3.0,Calm,Calm,-,N/A,,Scattered Clouds,0,2012-11-30 03:54:00
8:18 PM,59.0,55.4,88,30.17,2.0,Calm,Calm,-,N/A,,Mostly Cloudy,0,2012-11-30 04:18:00
8:54 PM,59.0,55.9,90,30.17,0.5,Calm,Calm,-,N/A,Fog,Fog,0,2012-11-30 04:54:00
9:54 PM,60.1,57.0,90,30.17,0.2,Calm,Calm,-,N/A,Fog,Fog,0,2012-11-30 05:54:00
10:54 PM,59.0,55.0,87,30.17,0.2,NNE,3.5,-,N/A,Fog,Fog,20,2012-11-30 06:54:00
11:15 PM,59.0,55.4,88,30.17,1.0,Calm,Calm,-,N/A,,Overcast,0,2012-11-30 07:15:00
11:23 PM,59.0,55.4,88,30.17,1.2,Calm,Calm,-,N/A,,Overcast,0,2012-11-30 07:23:00
11:25 PM,59.0,55.4,88,30.16,1.5,Calm,Calm,-,N/A,,Overcast,0,2012-11-30 07:25:00
11:31 PM,59.0,55.4,88,30.16,3.0,Calm,Calm,-,N/A,,Overcast,0,2012-11-30 07:31:00
11:54 PM,59.0,55.9,90,30.16,10.0,Calm,Calm,-,N/A,,Overcast,0,2012-11-30 07:54:00